Weather History for LKCV - September, 2013

Change the Weather History Date:

Friday, September 13, 2013

  Actual Average Record
Temperature  
Mean Temperature 56 °F -  
Max Temperature 62 °F - - ()
Min Temperature 51 °F - - ()
Degree Days  
Heating Degree Days 8    
Growing Degree Days 6 (Base 50)    
Moisture  
Dew Point 53 °F    
Average Humidity 90    
Maximum Humidity 100    
Minimum Humidity 68    
Precipitation  
Precipitation 0.00 in - - ()
Sea Level Pressure  
Sea Level Pressure 30.03 in    
Wind  
Wind Speed 6 mph ()    
Max Wind Speed 13 mph    
Max Gust Speed -    
Visibility 6.1 miles    
Events Rain , Thunderstorm    
T = Trace of Precipitation, MM = Missing Value Source: Averaged Metar Reports

Daily Weather History Graph

Daily Weather History Graph

Search for Another Location

Airport or City:

Trip Planner

Search our weather history database for the weather conditions in past years. The results will help you decide how hot, cold, wet, or windy it might be!

Date:

Astronomy

Sep. 13, 2013 Rise Set
Actual Time 6:31 AM CEST 7:16 PM CEST
Civil Twilight 5:58 AM CEST 7:48 PM CEST
Nautical Twilight 5:19 AM CEST 8:27 PM CEST
Astronomical Twilight 4:38 AM CEST 9:08 PM CEST
Moon 3:15 PM CEST (9/13) No Moon Set
Length of Visible Light 13h 50m
Length of Day
12h 44m
First Quarter, 58% of the Moon is Illuminated
Sep 13
First Quarter
Sep 19
Full
Sep 27
Last Quarter
Oct 5
New
Oct 12
First Quarter

Hourly Weather History & Observations

Time (CEST) Temp. Dew Point Humidity Pressure Visibility Wind Dir Wind Speed Gust Speed Precip Events Conditions
12:00 AM 53.6 °F 51.8 °F 94% 30.01 in 6.2 mi West 4.6 mph - N/A   Mostly Cloudy
1:00 AM 51.8 °F 51.8 °F 100% 30.01 in 6.2 mi West 3.5 mph - N/A   Mostly Cloudy
2:00 AM 51.8 °F 51.8 °F 100% 30.01 in 6.2 mi Variable 2.3 mph - N/A   Mostly Cloudy
3:00 AM 51.8 °F 51.8 °F 100% 30.01 in 6.2 mi West 4.6 mph - N/A Rain Light Rain Showers
4:00 AM 51.8 °F 51.8 °F 100% 30.01 in 6.2 mi West 3.5 mph - N/A Rain Light Rain Showers
5:00 AM 51.8 °F 51.8 °F 100% 30.01 in 6.2 mi WNW 4.6 mph - N/A   Overcast
5:58 AM 51.8 °F 51.8 °F 100% 30.01 in 6.2 mi WNW 4.6 mph - N/A   Mostly Cloudy
6:00 AM 51.8 °F 51.8 °F 100% 30.01 in 6.2 mi WNW 4.6 mph - N/A   Mostly Cloudy
7:00 AM 53.6 °F 51.8 °F 94% 30.04 in 5.0 mi WNW 6.9 mph - N/A   Light Drizzle
8:00 AM 53.6 °F 51.8 °F 94% 30.04 in 5.0 mi WNW 6.9 mph - N/A   Mostly Cloudy
9:00 AM 53.6 °F 53.6 °F 100% 30.04 in 6.2 mi WNW 10.4 mph - N/A   Mostly Cloudy
10:00 AM 55.4 °F 53.6 °F 94% 30.04 in 6.2 mi WNW 11.5 mph - N/A   Mostly Cloudy
11:00 AM 57.2 °F 53.6 °F 88% 30.06 in 6.2 mi WNW 9.2 mph - N/A   Mostly Cloudy
12:00 PM 59.0 °F 53.6 °F 82% 30.06 in 6.2 mi NW 12.7 mph - N/A   Mostly Cloudy
1:00 PM 59.0 °F 53.6 °F 82% 30.06 in 6.2 mi NW 10.4 mph - N/A   Mostly Cloudy
2:00 PM 60.8 °F 53.6 °F 77% 30.06 in 6.2 mi NW 12.7 mph - N/A   Mostly Cloudy
2:38 PM 60.8 °F 53.6 °F 77% 30.04 in 6.2 mi NW 11.5 mph - N/A Thunderstorm Mostly Cloudy
3:00 PM 60.8 °F 55.4 °F 82% 30.04 in 6.2 mi West 9.2 mph - N/A Thunderstorm Scattered Clouds
4:00 PM 62.6 °F 51.8 °F 68% 30.04 in 6.2 mi WNW 11.5 mph - N/A   Mostly Cloudy
5:00 PM 60.8 °F 51.8 °F 72% 30.04 in 6.2 mi WNW 12.7 mph - N/A   Mostly Cloudy
6:00 PM 59.0 °F 53.6 °F 82% 30.04 in - WSW 8.1 mph - N/A   Clear
7:00 PM 57.2 °F 53.6 °F 88% 30.04 in - WSW 9.2 mph - N/A   Clear
8:00 PM 57.2 °F 53.6 °F 88% 30.04 in 6.2 mi WSW 5.8 mph - N/A   Overcast
9:00 PM 55.4 °F 53.6 °F 94% 30.04 in 6.2 mi WSW 5.8 mph - N/A   Overcast
10:00 PM 57.2 °F 53.6 °F 88% 30.04 in - West 11.5 mph - N/A   Clear
11:00 PM 57.2 °F 53.6 °F 88% 30.04 in 6.2 mi West 12.7 mph - N/A Rain Light Rain